Time,TemperatureF,DewpointF,PressureIn,WindDirection,WindDirectionDegrees,WindSpeedMPH,WindSpeedGustMPH,Humidity,HourlyPrecipIn,Conditions,Clouds,dailyrainin,SoftwareType,DateUTC
2013-06-03 00:00:00,67.2,53.0,28.94,NNE,23,0.0,0.0,59,0.00,,,0.00,WSDL version 420,2013-06-03 05:00:00,
2013-06-03 00:05:00,67.1,52.5,28.94,NNE,23,0.0,0.0,60,0.00,,,0.00,WSDL version 420,2013-06-03 05:05:00,
2013-06-03 00:10:00,67.0,52.8,28.94,NNE,23,0.0,0.0,61,0.00,,,0.00,WSDL version 420,2013-06-03 05:10:00,
2013-06-03 00:15:00,67.3,53.0,28.94,NNE,23,0.0,0.0,61,0.00,,,0.00,WSDL version 420,2013-06-03 05:15:00,
2013-06-03 00:20:00,67.3,53.4,28.94,NNE,23,0.0,0.0,60,0.00,,,0.00,WSDL version 420,2013-06-03 05:20:00,
2013-06-03 00:25:00,66.8,52.7,28.94,NNE,23,0.0,0.0,61,0.00,,,0.00,WSDL version 420,2013-06-03 05:25:00,
2013-06-03 00:30:00,66.6,52.9,28.94,NNE,23,0.0,0.0,61,0.00,,,0.00,WSDL version 420,2013-06-03 05:30:00,
2013-06-03 00:35:00,66.9,53.3,28.94,NNE,23,0.0,0.0,61,0.00,,,0.00,WSDL version 420,2013-06-03 05:35:00,
2013-06-03 00:40:00,67.0,53.4,28.94,NNE,23,0.0,0.0,61,0.00,,,0.00,WSDL version 420,2013-06-03 05:40:00,
2013-06-03 00:45:00,66.4,52.8,28.94,NNE,23,0.0,0.0,62,0.00,,,0.00,WSDL version 420,2013-06-03 05:45:00,
2013-06-03 00:50:00,66.0,53.2,28.94,NNE,23,0.0,0.0,64,0.00,,,0.00,WSDL version 420,2013-06-03 05:50:00,
2013-06-03 00:55:00,66.1,53.7,28.94,NNE,23,0.0,0.0,65,0.00,,,0.00,WSDL version 420,2013-06-03 05:55:00,
2013-06-03 01:00:00,65.5,53.2,28.94,NNE,23,0.0,0.0,63,0.00,,,0.00,WSDL version 420,2013-06-03 06:00:00,
2013-06-03 01:05:00,65.2,52.9,28.94,NNE,23,0.0,0.0,65,0.00,,,0.00,WSDL version 420,2013-06-03 06:05:00,
2013-06-03 01:10:00,65.5,53.5,28.94,NNE,23,0.0,0.0,65,0.00,,,0.00,WSDL version 420,2013-06-03 06:10:00,
2013-06-03 01:15:00,65.7,53.6,28.94,NNE,23,0.0,0.0,65,0.00,,,0.00,WSDL version 420,2013-06-03 06:15:00,
2013-06-03 01:20:00,65.8,53.5,28.94,NNE,23,0.0,0.0,64,0.00,,,0.00,WSDL version 420,2013-06-03 06:20:00,
2013-06-03 01:25:00,65.8,53.3,28.94,NNE,23,0.0,0.0,64,0.00,,,0.00,WSDL version 420,2013-06-03 06:25:00,
2013-06-03 01:30:00,65.8,53.4,28.94,NNE,23,0.0,0.0,65,0.00,,,0.00,WSDL version 420,2013-06-03 06:30:00,
2013-06-03 01:35:00,65.8,53.3,28.94,NNE,23,0.0,0.0,64,0.00,,,0.00,WSDL version 420,2013-06-03 06:35:00,
2013-06-03 01:40:00,65.7,53.2,28.94,NNE,23,0.0,0.0,64,0.00,,,0.00,WSDL version 420,2013-06-03 06:40:00,
2013-06-03 01:45:00,65.5,53.4,28.94,NNE,23,0.0,0.0,65,0.00,,,0.00,WSDL version 420,2013-06-03 06:45:00,
2013-06-03 01:50:00,65.3,53.2,28.94,NNE,23,0.0,0.0,65,0.00,,,0.00,WSDL version 420,2013-06-03 06:50:00,
2013-06-03 01:55:00,65.4,53.3,28.94,NNE,23,0.0,0.0,65,0.00,,,0.00,WSDL version 420,2013-06-03 06:55:00,
2013-06-03 02:00:00,65.1,53.1,28.94,NNE,23,0.0,0.0,65,0.00,,,0.00,WSDL version 420,2013-06-03 07:00:00,
2013-06-03 02:05:00,64.4,52.6,28.94,NNE,23,0.0,0.0,67,0.00,,,0.00,WSDL version 420,2013-06-03 07:05:00,
2013-06-03 02:10:00,64.2,53.2,28.94,NNE,23,0.0,0.0,68,0.00,,,0.00,WSDL version 420,2013-06-03 07:10:00,
2013-06-03 02:15:00,64.2,53.3,28.94,NNE,23,0.0,0.0,67,0.00,,,0.00,WSDL version 420,2013-06-03 07:15:00,
2013-06-03 02:20:00,64.5,53.0,28.94,NNE,23,0.0,0.0,66,0.00,,,0.00,WSDL version 420,2013-06-03 07:20:00,
2013-06-03 02:25:00,64.5,53.4,28.94,NNE,23,0.0,0.0,68,0.00,,,0.00,WSDL version 420,2013-06-03 07:25:00,
2013-06-03 02:30:00,64.5,53.3,28.94,NNE,23,0.0,0.0,67,0.00,,,0.00,WSDL version 420,2013-06-03 07:30:00,
2013-06-03 02:35:00,64.4,53.6,28.94,NNE,23,0.0,0.0,68,0.00,,,0.00,WSDL version 420,2013-06-03 07:35:00,
2013-06-03 02:40:00,64.2,53.4,28.94,NNE,23,0.0,0.0,68,0.00,,,0.00,WSDL version 420,2013-06-03 07:40:00,
2013-06-03 02:45:00,63.8,53.5,28.94,NNE,23,0.0,0.0,70,0.00,,,0.00,WSDL version 420,2013-06-03 07:45:00,
2013-06-03 02:50:00,63.8,53.5,28.94,NNE,23,0.0,0.0,69,0.00,,,0.00,WSDL version 420,2013-06-03 07:50:00,
2013-06-03 02:55:00,63.9,53.2,28.94,NNE,23,0.0,0.0,68,0.00,,,0.00,WSDL version 420,2013-06-03 07:55:00,
2013-06-03 03:00:00,63.9,53.1,28.94,NNE,23,0.0,0.0,68,0.00,,,0.00,WSDL version 420,2013-06-03 08:00:00,
2013-06-03 03:05:00,63.9,53.1,28.94,NNE,23,0.0,0.0,68,0.00,,,0.00,WSDL version 420,2013-06-03 08:05:00,
2013-06-03 03:10:00,63.9,53.1,28.94,NNE,23,0.0,0.0,68,0.00,,,0.00,WSDL version 420,2013-06-03 08:10:00,
2013-06-03 03:15:00,63.9,53.1,28.94,NNE,23,0.0,0.0,68,0.00,,,0.00,WSDL version 420,2013-06-03 08:15:00,
2013-06-03 03:20:00,63.9,53.1,28.94,NNE,23,0.0,0.0,68,0.00,,,0.00,WSDL version 420,2013-06-03 08:20:00,
2013-06-03 03:25:00,63.6,53.2,28.94,NNE,23,0.0,0.0,69,0.00,,,0.00,WSDL version 420,2013-06-03 08:25:00,
2013-06-03 03:30:00,63.4,53.0,28.94,NNE,23,0.0,0.0,68,0.00,,,0.00,WSDL version 420,2013-06-03 08:30:00,
2013-06-03 03:35:00,63.1,52.7,28.94,NNE,23,0.0,0.0,69,0.00,,,0.00,WSDL version 420,2013-06-03 08:35:00,
2013-06-03 03:40:00,63.2,53.2,28.94,NNE,23,0.0,0.0,70,0.00,,,0.00,WSDL version 420,2013-06-03 08:40:00,
2013-06-03 03:45:00,63.2,53.3,28.94,NNE,23,0.0,0.0,70,0.00,,,0.00,WSDL version 420,2013-06-03 08:45:00,
2013-06-03 03:50:00,63.1,53.4,28.94,NNE,23,0.0,0.0,70,0.00,,,0.00,WSDL version 420,2013-06-03 08:50:00,
2013-06-03 03:55:00,63.1,53.3,28.94,NNE,23,0.0,0.0,70,0.00,,,0.00,WSDL version 420,2013-06-03 08:55:00,
2013-06-03 04:00:00,63.1,53.2,28.94,NNE,23,0.0,0.0,70,0.00,,,0.00,WSDL version 420,2013-06-03 09:00:00,
2013-06-03 04:05:00,63.1,52.9,28.94,NNE,23,0.0,0.0,69,0.00,,,0.00,WSDL version 420,2013-06-03 09:05:00,
2013-06-03 04:10:00,63.1,52.8,28.94,NNE,23,0.0,0.0,69,0.00,,,0.00,WSDL version 420,2013-06-03 09:10:00,
2013-06-03 04:15:00,63.1,52.8,28.94,NNE,23,0.0,0.0,69,0.00,,,0.00,WSDL version 420,2013-06-03 09:15:00,
2013-06-03 04:20:00,63.1,52.8,28.94,NNE,23,0.0,0.0,69,0.00,,,0.00,WSDL version 420,2013-06-03 09:20:00,
2013-06-03 04:25:00,63.1,52.7,28.94,NNE,23,0.0,0.0,69,0.00,,,0.00,WSDL version 420,2013-06-03 09:25:00,
2013-06-03 04:30:00,62.9,52.7,28.94,NNE,23,0.0,0.0,70,0.00,,,0.00,WSDL version 420,2013-06-03 09:30:00,
2013-06-03 04:35:00,62.8,52.9,28.94,NNE,23,0.0,0.0,70,0.00,,,0.00,WSDL version 420,2013-06-03 09:35:00,
2013-06-03 04:40:00,62.8,52.9,28.94,NNE,23,0.0,0.0,70,0.00,,,0.00,WSDL version 420,2013-06-03 09:40:00,
2013-06-03 04:45:00,63.0,52.9,28.94,NNE,23,0.0,0.0,70,0.00,,,0.00,WSDL version 420,2013-06-03 09:45:00,
2013-06-03 04:50:00,62.8,52.8,28.94,NNE,23,0.0,0.0,69,0.00,,,0.00,WSDL version 420,2013-06-03 09:50:00,
2013-06-03 04:55:00,62.2,52.4,28.94,NNE,23,0.0,0.0,71,0.00,,,0.00,WSDL version 420,2013-06-03 09:55:00,
2013-06-03 05:00:00,61.8,52.3,28.94,NNE,23,0.0,0.0,71,0.00,,,0.00,WSDL version 420,2013-06-03 10:00:00,
2013-06-03 05:05:00,62.1,52.6,28.94,NNE,23,0.0,0.0,71,0.00,,,0.00,WSDL version 420,2013-06-03 10:05:00,
2013-06-03 05:10:00,61.7,52.1,28.94,NNE,23,0.0,0.0,71,0.00,,,0.00,WSDL version 420,2013-06-03 10:10:00,
2013-06-03 05:15:00,61.6,52.5,28.94,NNE,23,0.0,0.0,72,0.00,,,0.00,WSDL version 420,2013-06-03 10:15:00,
2013-06-03 05:20:00,61.8,52.3,28.94,NNE,23,0.0,0.0,71,0.00,,,0.00,WSDL version 420,2013-06-03 10:20:00,
2013-06-03 05:25:00,61.9,52.4,28.94,NNE,23,0.0,0.0,71,0.00,,,0.00,WSDL version 420,2013-06-03 10:25:00,
2013-06-03 05:30:00,61.9,52.4,28.94,NNE,23,0.0,0.0,71,0.00,,,0.00,WSDL version 420,2013-06-03 10:30:00,
2013-06-03 05:35:00,61.5,52.4,28.94,NNE,23,0.0,0.0,72,0.00,,,0.00,WSDL version 420,2013-06-03 10:35:00,
2013-06-03 05:40:00,61.2,51.8,28.94,NNE,23,0.0,0.0,71,0.00,,,0.00,WSDL version 420,2013-06-03 10:40:00,
2013-06-03 05:45:00,61.2,52.1,28.94,NNE,23,0.0,0.0,72,0.00,,,0.00,WSDL version 420,2013-06-03 10:45:00,
2013-06-03 05:50:00,61.3,52.2,28.94,NNE,23,0.0,0.0,71,0.00,,,0.00,WSDL version 420,2013-06-03 10:50:00,
2013-06-03 05:55:00,60.9,51.5,28.94,NNE,23,0.0,0.0,71,0.00,,,0.00,WSDL version 420,2013-06-03 10:55:00,
2013-06-03 06:00:00,60.9,51.9,28.94,NNE,23,0.0,0.0,73,0.00,,,0.00,WSDL version 420,2013-06-03 11:00:00,
2013-06-03 06:05:00,61.1,52.4,28.94,NNE,23,0.0,0.0,73,0.00,,,0.00,WSDL version 420,2013-06-03 11:05:00,
2013-06-03 06:10:00,61.3,52.6,28.94,NNE,23,0.0,0.0,73,0.00,,,0.00,WSDL version 420,2013-06-03 11:10:00,
2013-06-03 06:15:00,61.3,52.5,28.94,NNE,23,0.0,0.0,73,0.00,,,0.00,WSDL version 420,2013-06-03 11:15:00,
2013-06-03 06:20:00,61.3,52.4,28.94,NNE,23,0.0,0.0,72,0.00,,,0.00,WSDL version 420,2013-06-03 11:20:00,
2013-06-03 06:25:00,61.3,52.2,28.94,NNE,23,0.0,0.0,72,0.00,,,0.00,WSDL version 420,2013-06-03 11:25:00,
2013-06-03 06:30:00,61.2,52.4,28.94,NNE,23,0.0,0.0,72,0.00,,,0.00,WSDL version 420,2013-06-03 11:30:00,
2013-06-03 06:35:00,61.0,52.2,28.94,NNE,23,0.0,0.0,73,0.00,,,0.00,WSDL version 420,2013-06-03 11:35:00,
2013-06-03 06:40:00,61.1,52.4,28.94,NNE,23,0.0,0.0,73,0.00,,,0.00,WSDL version 420,2013-06-03 11:40:00,
2013-06-03 06:45:00,61.2,52.4,28.97,NNE,23,0.0,0.0,73,0.00,,,0.00,WSDL version 420,2013-06-03 11:45:00,
2013-06-03 06:50:00,60.8,51.8,28.97,NNE,23,0.0,0.0,72,0.00,,,0.00,WSDL version 420,2013-06-03 11:50:00,
2013-06-03 06:55:00,60.7,51.9,28.97,NNE,23,0.0,0.0,72,0.00,,,0.00,WSDL version 420,2013-06-03 11:55:00,
2013-06-03 07:00:00,60.9,52.2,28.97,NNE,23,0.0,0.0,74,0.00,,,0.00,WSDL version 420,2013-06-03 12:00:00,
2013-06-03 07:05:00,61.2,53.0,28.97,NNE,23,0.0,0.0,74,0.00,,,0.00,WSDL version 420,2013-06-03 12:05:00,
2013-06-03 07:10:00,61.8,53.6,28.97,NNE,23,0.0,0.0,75,0.00,,,0.00,WSDL version 420,2013-06-03 12:10:00,
2013-06-03 07:15:00,62.0,53.7,28.97,NNE,23,0.0,0.0,74,0.00,,,0.00,WSDL version 420,2013-06-03 12:15:00,
2013-06-03 07:20:00,62.5,53.8,28.97,NNE,23,0.0,1.1,73,0.00,,,0.00,WSDL version 420,2013-06-03 12:20:00,
2013-06-03 07:25:00,63.2,54.4,28.97,NNE,23,0.0,1.1,73,0.00,,,0.00,WSDL version 420,2013-06-03 12:25:00,
2013-06-03 07:30:00,63.7,54.9,28.94,NNE,23,0.0,0.0,73,0.00,,,0.00,WSDL version 420,2013-06-03 12:30:00,
2013-06-03 07:35:00,64.3,55.1,28.94,NNE,23,0.0,0.0,72,0.00,,,0.00,WSDL version 420,2013-06-03 12:35:00,
2013-06-03 07:40:00,64.8,55.5,28.94,NNE,23,0.0,0.0,71,0.00,,,0.00,WSDL version 420,2013-06-03 12:40:00,
2013-06-03 07:45:00,65.3,55.7,28.94,NNE,23,0.0,0.0,71,0.00,,,0.00,WSDL version 420,2013-06-03 12:45:00,
2013-06-03 07:50:00,65.9,56.2,28.94,NNE,23,0.0,0.0,71,0.00,,,0.00,WSDL version 420,2013-06-03 12:50:00,
2013-06-03 07:55:00,66.5,56.8,28.94,NNE,23,0.0,0.0,71,0.00,,,0.00,WSDL version 420,2013-06-03 12:55:00,
2013-06-03 08:00:00,67.1,57.0,28.94,NNE,23,0.0,0.0,70,0.00,,,0.00,WSDL version 420,2013-06-03 13:00:00,
2013-06-03 08:05:00,67.8,57.5,28.94,NNE,23,0.0,0.0,69,0.00,,,0.00,WSDL version 420,2013-06-03 13:05:00,
2013-06-03 08:10:00,68.6,58.0,28.94,NNE,23,0.0,1.1,68,0.00,,,0.00,WSDL version 420,2013-06-03 13:10:00,
2013-06-03 08:15:00,69.4,58.2,28.94,NE,43,0.1,1.1,67,0.00,,,0.00,WSDL version 420,2013-06-03 13:15:00,
2013-06-03 08:20:00,70.4,58.2,28.94,ENE,68,0.5,1.3,64,0.00,,,0.00,WSDL version 420,2013-06-03 13:20:00,
2013-06-03 08:25:00,71.1,58.4,28.94,East,84,0.6,2.5,64,0.00,,,0.00,WSDL version 420,2013-06-03 13:25:00,
2013-06-03 08:30:00,71.6,58.0,28.94,NE,45,1.2,2.5,63,0.00,,,0.00,WSDL version 420,2013-06-03 13:30:00,
2013-06-03 08:35:00,72.3,58.4,28.94,East,84,0.9,2.5,61,0.00,,,0.00,WSDL version 420,2013-06-03 13:35:00,
2013-06-03 08:40:00,72.9,58.5,28.94,NE,45,1.7,3.1,61,0.00,,,0.00,WSDL version 420,2013-06-03 13:40:00,
2013-06-03 08:45:00,73.3,58.3,28.94,NE,45,1.3,3.1,59,0.00,,,0.00,WSDL version 420,2013-06-03 13:45:00,
2013-06-03 08:50:00,74.2,58.1,28.94,NE,42,1.2,2.2,56,0.00,,,0.00,WSDL version 420,2013-06-03 13:50:00,
2013-06-03 08:55:00,74.7,57.7,28.94,ENE,58,2.1,3.1,55,0.00,,,0.00,WSDL version 420,2013-06-03 13:55:00,
2013-06-03 09:00:00,75.3,57.7,28.94,NNE,31,1.5,3.6,55,0.00,,,0.00,WSDL version 420,2013-06-03 14:00:00,
2013-06-03 09:05:00,76.0,58.0,28.94,NE,55,1.4,3.6,54,0.00,,,0.00,WSDL version 420,2013-06-03 14:05:00,
2013-06-03 09:10:00,77.0,58.5,28.94,NNE,33,1.1,3.4,53,0.00,,,0.00,WSDL version 420,2013-06-03 14:10:00,
2013-06-03 09:15:00,77.7,57.7,28.94,NE,42,1.3,3.4,49,0.00,,,0.00,WSDL version 420,2013-06-03 14:15:00,
2013-06-03 09:20:00,78.2,57.3,28.94,NE,37,2.5,3.4,48,0.00,,,0.00,WSDL version 420,2013-06-03 14:20:00,
2013-06-03 09:25:00,78.0,56.9,28.94,SW,233,0.4,2.9,48,0.00,,,0.00,WSDL version 420,2013-06-03 14:25:00,
2013-06-03 09:30:00,79.2,58.0,28.94,NNE,30,0.0,2.5,48,0.00,,,0.00,WSDL version 420,2013-06-03 14:30:00,
2013-06-03 09:35:00,79.9,57.9,28.94,East,84,1.8,3.6,47,0.00,,,0.00,WSDL version 420,2013-06-03 14:35:00,
2013-06-03 09:40:00,79.8,57.5,28.94,NNW,333,0.5,3.6,47,0.00,,,0.00,WSDL version 420,2013-06-03 14:40:00,
2013-06-03 09:45:00,80.5,58.2,28.94,NNW,343,0.0,2.2,47,0.00,,,0.00,WSDL version 420,2013-06-03 14:45:00,
2013-06-03 09:50:00,81.1,57.7,28.94,NE,37,0.0,2.5,42,0.00,,,0.00,WSDL version 420,2013-06-03 14:50:00,
2013-06-03 09:55:00,80.8,56.7,28.94,ENE,58,1.4,2.9,44,0.00,,,0.00,WSDL version 420,2013-06-03 14:55:00,
2013-06-03 10:00:00,80.9,57.1,28.94,SSW,197,1.8,2.9,44,0.00,,,0.00,WSDL version 420,2013-06-03 15:00:00,
2013-06-03 10:05:00,80.7,56.2,28.94,ESE,110,2.3,5.4,44,0.00,,,0.00,WSDL version 420,2013-06-03 15:05:00,
2013-06-03 10:10:00,80.7,56.0,28.94,NE,51,0.6,5.4,43,0.00,,,0.00,WSDL version 420,2013-06-03 15:10:00,
2013-06-03 10:15:00,80.9,56.4,28.94,NW,309,1.3,3.8,43,0.00,,,0.00,WSDL version 420,2013-06-03 15:15:00,
2013-06-03 10:20:00,81.6,57.2,28.94,North,352,1.2,3.4,43,0.00,,,0.00,WSDL version 420,2013-06-03 15:20:00,
2013-06-03 10:25:00,82.6,57.9,28.94,South,174,1.2,2.7,42,0.00,,,0.00,WSDL version 420,2013-06-03 15:25:00,
2013-06-03 10:30:00,82.5,57.2,28.94,SW,218,0.0,2.0,41,0.00,,,0.00,WSDL version 420,2013-06-03 15:30:00,
2013-06-03 10:35:00,82.5,56.6,28.94,East,84,1.0,2.0,41,0.00,,,0.00,WSDL version 420,2013-06-03 15:35:00,
2013-06-03 10:40:00,82.3,56.6,28.94,SE,135,1.0,2.9,42,0.00,,,0.00,WSDL version 420,2013-06-03 15:40:00,
2013-06-03 10:45:00,82.7,56.5,28.94,SE,135,1.5,3.1,41,0.00,,,0.00,WSDL version 420,2013-06-03 15:45:00,
2013-06-03 10:50:00,82.9,56.5,28.94,NW,320,0.5,3.1,40,0.00,,,0.00,WSDL version 420,2013-06-03 15:50:00,
2013-06-03 10:55:00,82.9,56.2,28.94,West,265,1.1,3.1,40,0.00,,,0.00,WSDL version 420,2013-06-03 15:55:00,
2013-06-03 11:00:00,82.8,56.3,28.94,SSW,208,1.7,2.7,40,0.00,,,0.00,WSDL version 420,2013-06-03 16:00:00,
2013-06-03 11:05:00,83.0,56.4,28.94,NNW,343,1.1,2.7,41,0.00,,,0.00,WSDL version 420,2013-06-03 16:05:00,
2013-06-03 11:10:00,83.5,56.4,28.94,SSW,199,1.6,3.1,39,0.00,,,0.00,WSDL version 420,2013-06-03 16:10:00,
2013-06-03 11:15:00,83.6,56.5,28.94,SW,235,0.5,3.1,39,0.00,,,0.00,WSDL version 420,2013-06-03 16:15:00,
2013-06-03 11:20:00,84.1,56.5,28.94,SSW,196,2.3,3.1,39,0.00,,,0.00,WSDL version 420,2013-06-03 16:20:00,
2013-06-03 11:25:00,83.9,56.0,28.94,East,80,1.6,3.1,39,0.00,,,0.00,WSDL version 420,2013-06-03 16:25:00,
2013-06-03 11:30:00,84.3,56.1,28.94,NNE,20,2.2,3.1,38,0.00,,,0.00,WSDL version 420,2013-06-03 16:30:00,
2013-06-03 11:35:00,84.5,56.5,28.94,North,349,1.2,3.1,38,0.00,,,0.00,WSDL version 420,2013-06-03 16:35:00,
2013-06-03 11:40:00,85.2,57.4,28.94,ESE,105,1.2,3.1,38,0.00,,,0.00,WSDL version 420,2013-06-03 16:40:00,
2013-06-03 11:45:00,85.2,56.9,28.94,South,169,1.0,3.1,38,0.00,,,0.00,WSDL version 420,2013-06-03 16:45:00,
2013-06-03 11:50:00,85.8,57.1,28.94,SW,215,1.2,2.9,38,0.00,,,0.00,WSDL version 420,2013-06-03 16:50:00,
2013-06-03 11:55:00,85.5,55.6,28.94,ENE,64,1.9,3.1,36,0.00,,,0.00,WSDL version 420,2013-06-03 16:55:00,
2013-06-03 12:00:00,85.6,55.5,28.94,NE,48,1.3,3.1,35,0.00,,,0.00,WSDL version 420,2013-06-03 17:00:00,
2013-06-03 12:05:00,85.8,55.6,28.94,NNE,17,1.3,3.4,35,0.00,,,0.00,WSDL version 420,2013-06-03 17:05:00,
2013-06-03 12:10:00,85.6,55.6,28.94,NE,45,1.8,4.0,37,0.00,,,0.00,WSDL version 420,2013-06-03 17:10:00,
2013-06-03 12:15:00,86.6,56.5,28.91,NNE,23,2.1,4.0,35,0.00,,,0.00,WSDL version 420,2013-06-03 17:15:00,
2013-06-03 12:20:00,87.0,56.0,28.91,SSW,205,0.4,3.4,35,0.00,,,0.00,WSDL version 420,2013-06-03 17:20:00,
2013-06-03 12:25:00,86.8,54.3,28.91,North,350,1.9,4.3,34,0.00,,,0.00,WSDL version 420,2013-06-03 17:25:00,
2013-06-03 12:30:00,87.0,55.5,28.91,NNE,17,1.6,4.3,34,0.00,,,0.00,WSDL version 420,2013-06-03 17:30:00,
2013-06-03 12:35:00,87.1,54.9,28.91,NNW,330,1.0,4.0,33,0.00,,,0.00,WSDL version 420,2013-06-03 17:35:00,
2013-06-03 12:40:00,87.3,54.5,28.91,West,260,0.7,3.6,33,0.00,,,0.00,WSDL version 420,2013-06-03 17:40:00,
2013-06-03 12:45:00,87.6,54.4,28.91,ESE,113,1.8,3.1,32,0.00,,,0.00,WSDL version 420,2013-06-03 17:45:00,
2013-06-03 12:50:00,88.1,54.9,28.91,WNW,287,1.1,3.1,32,0.00,,,0.00,WSDL version 420,2013-06-03 17:50:00,
2013-06-03 12:55:00,88.0,54.2,28.91,SE,138,0.8,3.4,31,0.00,,,0.00,WSDL version 420,2013-06-03 17:55:00,
2013-06-03 13:00:00,87.9,53.5,28.91,NE,39,2.2,3.8,31,0.00,,,0.00,WSDL version 420,2013-06-03 18:00:00,
2013-06-03 13:05:00,87.8,53.8,28.91,WSW,253,1.7,3.8,31,0.00,,,0.00,WSDL version 420,2013-06-03 18:05:00,
2013-06-03 13:10:00,88.2,54.6,28.91,South,169,1.3,3.8,32,0.00,,,0.00,WSDL version 420,2013-06-03 18:10:00,
2013-06-03 13:15:00,89.0,54.9,28.91,SSW,205,2.2,3.8,31,0.00,,,0.00,WSDL version 420,2013-06-03 18:15:00,
2013-06-03 13:20:00,88.7,53.6,28.91,East,93,1.9,3.4,31,0.00,,,0.00,WSDL version 420,2013-06-03 18:20:00,
2013-06-03 13:25:00,88.5,53.2,28.91,East,84,1.5,2.9,30,0.00,,,0.00,WSDL version 420,2013-06-03 18:25:00,
2013-06-03 13:30:00,88.8,53.5,28.88,SE,125,2.1,3.4,30,0.00,,,0.00,WSDL version 420,2013-06-03 18:30:00,
2013-06-03 13:35:00,89.3,53.8,28.88,NNW,338,1.0,3.4,30,0.00,,,0.00,WSDL version 420,2013-06-03 18:35:00,
2013-06-03 13:40:00,89.2,53.6,28.88,ESE,117,1.2,3.6,30,0.00,,,0.00,WSDL version 420,2013-06-03 18:40:00,
2013-06-03 13:45:00,89.2,53.8,28.88,ESE,103,2.1,4.7,30,0.00,,,0.00,WSDL version 420,2013-06-03 18:45:00,
2013-06-03 13:50:00,89.5,53.4,28.88,SSW,210,2.0,4.7,30,0.00,,,0.00,WSDL version 420,2013-06-03 18:50:00,
2013-06-03 13:55:00,89.6,53.4,28.88,NE,34,1.5,4.0,30,0.00,,,0.00,WSDL version 420,2013-06-03 18:55:00,
2013-06-03 14:00:00,89.6,53.2,28.85,East,98,1.3,3.4,29,0.00,,,0.00,WSDL version 420,2013-06-03 19:00:00,
2013-06-03 14:05:00,89.6,53.2,28.85,SE,135,0.7,3.6,29,0.00,,,0.00,WSDL version 420,2013-06-03 19:05:00,
2013-06-03 14:10:00,89.5,53.2,28.85,South,184,1.7,4.0,29,0.00,,,0.00,WSDL version 420,2013-06-03 19:10:00,
2013-06-03 14:15:00,89.3,53.4,28.88,SSW,203,2.0,4.0,30,0.00,,,0.00,WSDL version 420,2013-06-03 19:15:00,
2013-06-03 14:20:00,89.3,53.0,28.88,West,264,1.5,3.8,29,0.00,,,0.00,WSDL version 420,2013-06-03 19:20:00,
2013-06-03 14:25:00,89.4,52.8,28.88,East,100,1.3,3.8,29,0.00,,,0.00,WSDL version 420,2013-06-03 19:25:00,
2013-06-03 14:30:00,89.2,52.8,28.85,SSE,158,1.6,2.5,29,0.00,,,0.00,WSDL version 420,2013-06-03 19:30:00,
2013-06-03 14:35:00,89.7,53.1,28.85,South,174,0.3,2.5,28,0.00,,,0.00,WSDL version 420,2013-06-03 19:35:00,
2013-06-03 14:40:00,89.8,52.9,28.85,SW,225,1.8,2.9,28,0.00,,,0.00,WSDL version 420,2013-06-03 19:40:00,
2013-06-03 14:45:00,89.6,52.2,28.85,ENE,63,1.1,2.9,28,0.00,,,0.00,WSDL version 420,2013-06-03 19:45:00,
2013-06-03 14:50:00,89.6,52.2,28.85,West,273,1.3,3.1,28,0.00,,,0.00,WSDL version 420,2013-06-03 19:50:00,
2013-06-03 14:55:00,89.7,52.3,28.85,ENE,70,1.1,3.1,28,0.00,,,0.00,WSDL version 420,2013-06-03 19:55:00,
2013-06-03 15:00:00,89.8,52.4,28.85,SE,141,1.5,2.5,28,0.00,,,0.00,WSDL version 420,2013-06-03 20:00:00,
2013-06-03 15:05:00,89.9,52.5,28.85,NW,321,1.7,2.9,28,0.00,,,0.00,WSDL version 420,2013-06-03 20:05:00,
2013-06-03 15:10:00,89.8,52.4,28.85,ENE,70,1.5,2.9,28,0.00,,,0.00,WSDL version 420,2013-06-03 20:10:00,
2013-06-03 15:15:00,90.0,52.6,28.85,SSW,208,1.9,3.6,28,0.00,,,0.00,WSDL version 420,2013-06-03 20:15:00,
2013-06-03 15:20:00,90.0,52.4,28.85,East,83,2.6,4.7,28,0.00,,,0.00,WSDL version 420,2013-06-03 20:20:00,
2013-06-03 15:25:00,90.1,52.6,28.85,West,260,1.9,4.7,28,0.00,,,0.00,WSDL version 420,2013-06-03 20:25:00,
2013-06-03 15:30:00,90.1,52.6,28.85,SE,133,1.4,3.6,28,0.00,,,0.00,WSDL version 420,2013-06-03 20:30:00,
2013-06-03 15:35:00,90.2,52.1,28.85,East,100,1.6,3.6,28,0.00,,,0.00,WSDL version 420,2013-06-03 20:35:00,
2013-06-03 15:40:00,90.0,52.6,28.85,ESE,115,1.1,4.0,28,0.00,,,0.00,WSDL version 420,2013-06-03 20:40:00,
2013-06-03 15:45:00,89.9,52.5,28.82,ESE,103,1.1,4.0,28,0.00,,,0.00,WSDL version 420,2013-06-03 20:45:00,
2013-06-03 15:50:00,90.1,52.6,28.82,WSW,242,1.2,2.7,28,0.00,,,0.00,WSDL version 420,2013-06-03 20:50:00,
2013-06-03 15:55:00,90.5,53.0,28.82,NW,313,1.3,2.7,28,0.00,,,0.00,WSDL version 420,2013-06-03 20:55:00,
2013-06-03 16:00:00,90.3,52.0,28.82,NNE,31,1.8,3.4,27,0.00,,,0.00,WSDL version 420,2013-06-03 21:00:00,
2013-06-03 16:05:00,90.1,51.7,28.82,NNE,23,2.2,3.8,27,0.00,,,0.00,WSDL version 420,2013-06-03 21:05:00,
2013-06-03 16:10:00,90.3,52.1,28.82,WSW,240,1.1,3.8,28,0.00,,,0.00,WSDL version 420,2013-06-03 21:10:00,
2013-06-03 16:15:00,90.6,51.9,28.82,SW,223,1.5,3.6,27,0.00,,,0.00,WSDL version 420,2013-06-03 21:15:00,
2013-06-03 16:20:00,90.4,51.1,28.82,SW,218,1.6,3.6,25,0.00,,,0.00,WSDL version 420,2013-06-03 21:20:00,
2013-06-03 16:25:00,90.7,49.9,28.82,West,278,1.2,3.1,24,0.00,,,0.00,WSDL version 420,2013-06-03 21:25:00,
2013-06-03 16:30:00,90.4,48.7,28.82,East,98,1.1,3.1,24,0.00,,,0.00,WSDL version 420,2013-06-03 21:30:00,
2013-06-03 16:35:00,90.4,49.2,28.82,WSW,253,1.2,3.4,24,0.00,,,0.00,WSDL version 420,2013-06-03 21:35:00,
2013-06-03 16:40:00,90.3,49.7,28.82,NNE,25,0.4,3.4,25,0.00,,,0.00,WSDL version 420,2013-06-03 21:40:00,
2013-06-03 16:45:00,90.4,49.8,28.82,SSW,193,0.6,4.0,25,0.00,,,0.00,WSDL version 420,2013-06-03 21:45:00,
2013-06-03 16:50:00,90.4,49.8,28.82,NE,42,1.3,4.0,24,0.00,,,0.00,WSDL version 420,2013-06-03 21:50:00,
2013-06-03 16:55:00,90.4,48.8,28.82,West,273,1.0,3.4,23,0.00,,,0.00,WSDL version 420,2013-06-03 21:55:00,
2013-06-03 17:00:00,90.3,48.7,28.82,West,273,1.6,3.4,24,0.00,,,0.00,WSDL version 420,2013-06-03 22:00:00,
2013-06-03 17:05:00,90.3,47.5,28.82,East,88,1.8,3.6,24,0.00,,,0.00,WSDL version 420,2013-06-03 22:05:00,
2013-06-03 17:10:00,90.2,47.6,28.82,NW,308,0.6,3.6,24,0.00,,,0.00,WSDL version 420,2013-06-03 22:10:00,
2013-06-03 17:15:00,90.2,48.1,28.82,ENE,68,0.7,2.5,24,0.00,,,0.00,WSDL version 420,2013-06-03 22:15:00,
2013-06-03 17:20:00,90.1,47.8,28.82,SSW,203,1.3,2.5,23,0.00,,,0.00,WSDL version 420,2013-06-03 22:20:00,
2013-06-03 17:25:00,90.1,48.5,28.82,SSW,211,0.4,2.5,24,0.00,,,0.00,WSDL version 420,2013-06-03 22:25:00,
2013-06-03 17:30:00,90.1,48.3,28.82,NW,309,0.0,2.2,25,0.00,,,0.00,WSDL version 420,2013-06-03 22:30:00,
2013-06-03 17:35:00,90.2,49.2,28.82,SW,236,0.4,2.2,24,0.00,,,0.00,WSDL version 420,2013-06-03 22:35:00,
2013-06-03 17:40:00,90.1,49.2,28.82,WSW,243,1.0,2.9,25,0.00,,,0.00,WSDL version 420,2013-06-03 22:40:00,
2013-06-03 17:45:00,90.1,49.6,28.82,SSW,205,1.3,2.9,25,0.00,,,0.00,WSDL version 420,2013-06-03 22:45:00,
2013-06-03 17:50:00,90.1,49.6,28.82,SW,225,0.5,2.2,25,0.00,,,0.00,WSDL version 420,2013-06-03 22:50:00,
2013-06-03 17:55:00,90.1,49.4,28.82,NNE,13,1.1,2.2,24,0.00,,,0.00,WSDL version 420,2013-06-03 22:55:00,
2013-06-03 18:00:00,90.0,49.0,28.79,NE,45,2.6,3.6,25,0.00,,,0.00,WSDL version 420,2013-06-03 23:00:00,
2013-06-03 18:05:00,89.8,48.6,28.79,NE,38,0.4,3.6,24,0.00,,,0.00,WSDL version 420,2013-06-03 23:05:00,
2013-06-03 18:10:00,89.6,48.4,28.79,SSW,205,0.4,2.5,24,0.00,,,0.00,WSDL version 420,2013-06-03 23:10:00,
2013-06-03 18:15:00,89.6,47.6,28.79,NNE,23,0.0,2.5,24,0.00,,,0.00,WSDL version 420,2013-06-03 23:15:00,
2013-06-03 18:20:00,89.6,47.9,28.79,NNE,25,0.4,2.5,24,0.00,,,0.00,WSDL version 420,2013-06-03 23:20:00,
2013-06-03 18:25:00,89.6,48.5,28.79,North,350,1.1,2.5,25,0.00,,,0.00,WSDL version 420,2013-06-03 23:25:00,
2013-06-03 18:30:00,89.4,48.8,28.79,North,358,0.4,2.5,24,0.00,,,0.00,WSDL version 420,2013-06-03 23:30:00,
2013-06-03 18:35:00,89.3,48.4,28.79,East,96,0.4,1.6,25,0.00,,,0.00,WSDL version 420,2013-06-03 23:35:00,
2013-06-03 18:40:00,89.1,48.8,28.79,West,264,0.0,1.6,25,0.00,,,0.00,WSDL version 420,2013-06-03 23:40:00,
2013-06-03 18:45:00,88.8,48.5,28.82,West,270,0.0,1.1,25,0.00,,,0.00,WSDL version 420,2013-06-03 23:45:00,
2013-06-03 18:50:00,88.7,48.4,28.82,SE,135,0.4,2.2,25,0.00,,,0.00,WSDL version 420,2013-06-03 23:50:00,
2013-06-03 18:55:00,88.5,48.3,28.82,WNW,298,0.0,2.9,25,0.00,,,0.00,WSDL version 420,2013-06-03 23:55:00,
2013-06-03 19:00:00,88.4,48.3,28.79,West,280,0.0,2.9,26,0.00,,,0.00,WSDL version 420,2013-06-04 00:00:00,
2013-06-03 19:05:00,88.2,47.9,28.79,North,360,0.0,1.1,25,0.00,,,0.00,WSDL version 420,2013-06-04 00:05:00,
2013-06-03 19:10:00,88.0,47.8,28.79,North,8,0.0,1.3,25,0.00,,,0.00,WSDL version 420,2013-06-04 00:10:00,
2013-06-03 19:15:00,87.9,47.9,28.82,West,264,0.5,2.2,26,0.00,,,0.00,WSDL version 420,2013-06-04 00:15:00,
2013-06-03 19:20:00,87.7,48.7,28.82,WNW,293,0.0,2.2,27,0.00,,,0.00,WSDL version 420,2013-06-04 00:20:00,
2013-06-03 19:25:00,87.4,49.5,28.82,SSW,208,0.0,1.1,28,0.00,,,0.00,WSDL version 420,2013-06-04 00:25:00,
2013-06-03 19:30:00,87.2,50.1,28.82,WSW,248,0.0,1.1,28,0.00,,,0.00,WSDL version 420,2013-06-04 00:30:00,
2013-06-03 19:35:00,87.0,50.0,28.82,North,353,0.0,2.0,28,0.00,,,0.00,WSDL version 420,2013-06-04 00:35:00,
2013-06-03 19:40:00,86.7,49.7,28.82,WSW,248,0.0,2.0,28,0.00,,,0.00,WSDL version 420,2013-06-04 00:40:00,
2013-06-03 19:45:00,86.3,49.4,28.82,SW,225,0.0,0.9,28,0.00,,,0.00,WSDL version 420,2013-06-04 00:45:00,
2013-06-03 19:50:00,85.9,49.8,28.82,SW,225,0.0,0.9,29,0.00,,,0.00,WSDL version 420,2013-06-04 00:50:00,
2013-06-03 19:55:00,85.4,49.5,28.82,SW,225,0.0,1.1,29,0.00,,,0.00,WSDL version 420,2013-06-04 00:55:00,
2013-06-03 20:00:00,85.1,49.6,28.82,SW,225,0.0,1.1,30,0.00,,,0.00,WSDL version 420,2013-06-04 01:00:00,
2013-06-03 20:05:00,84.7,49.8,28.82,WSW,248,0.0,0.0,30,0.00,,,0.00,WSDL version 420,2013-06-04 01:05:00,
2013-06-03 20:10:00,84.2,49.6,28.82,WSW,248,0.0,0.0,31,0.00,,,0.00,WSDL version 420,2013-06-04 01:10:00,
2013-06-03 20:15:00,83.8,49.2,28.82,SSW,203,0.0,0.0,31,0.00,,,0.00,WSDL version 420,2013-06-04 01:15:00,
2013-06-03 20:20:00,83.6,49.0,28.82,North,360,0.4,1.3,31,0.00,,,0.00,WSDL version 420,2013-06-04 01:20:00,
2013-06-03 20:25:00,83.3,49.6,28.82,North,8,0.0,1.3,31,0.00,,,0.00,WSDL version 420,2013-06-04 01:25:00,
2013-06-03 20:30:00,83.1,49.4,28.82,NNE,23,0.9,2.0,31,0.00,,,0.00,WSDL version 420,2013-06-04 01:30:00,
2013-06-03 20:35:00,82.9,49.4,28.82,NE,45,0.0,2.0,32,0.00,,,0.00,WSDL version 420,2013-06-04 01:35:00,
2013-06-03 20:40:00,82.9,50.0,28.82,NE,45,0.0,1.3,32,0.00,,,0.00,WSDL version 420,2013-06-04 01:40:00,
2013-06-03 20:45:00,82.5,49.7,28.82,NE,45,0.0,0.0,32,0.00,,,0.00,WSDL version 420,2013-06-04 01:45:00,
2013-06-03 20:50:00,82.3,50.0,28.82,NE,45,0.0,0.0,33,0.00,,,0.00,WSDL version 420,2013-06-04 01:50:00,
2013-06-03 20:55:00,81.8,50.1,28.82,NE,45,0.0,0.0,34,0.00,,,0.00,WSDL version 420,2013-06-04 01:55:00,
2013-06-03 21:00:00,81.1,50.1,28.82,NE,45,0.0,0.0,34,0.00,,,0.00,WSDL version 420,2013-06-04 02:00:00,
2013-06-03 21:05:00,80.5,50.1,28.82,NE,45,0.0,0.0,35,0.00,,,0.00,WSDL version 420,2013-06-04 02:05:00,
2013-06-03 21:10:00,80.0,50.2,28.82,NE,45,0.0,0.0,36,0.00,,,0.00,WSDL version 420,2013-06-04 02:10:00,
2013-06-03 21:15:00,79.6,50.3,28.82,NE,45,0.0,0.0,36,0.00,,,0.00,WSDL version 420,2013-06-04 02:15:00,
2013-06-03 21:20:00,79.2,50.8,28.82,NE,45,0.0,0.0,37,0.00,,,0.00,WSDL version 420,2013-06-04 02:20:00,
2013-06-03 21:25:00,79.0,51.2,28.82,NE,45,0.0,0.0,38,0.00,,,0.00,WSDL version 420,2013-06-04 02:25:00,
2013-06-03 21:30:00,79.1,51.4,28.85,NNE,23,0.0,1.3,38,0.00,,,0.00,WSDL version 420,2013-06-04 02:30:00,
2013-06-03 21:35:00,79.2,51.7,28.85,NNE,23,0.0,1.3,39,0.00,,,0.00,WSDL version 420,2013-06-04 02:35:00,
2013-06-03 21:40:00,79.3,52.1,28.85,NNE,23,0.0,1.3,39,0.00,,,0.00,WSDL version 420,2013-06-04 02:40:00,
2013-06-03 21:45:00,79.2,52.7,28.82,NNE,28,0.4,2.0,39,0.00,,,0.00,WSDL version 420,2013-06-04 02:45:00,
2013-06-03 21:50:00,79.2,52.8,28.82,NNE,23,0.6,2.5,40,0.00,,,0.00,WSDL version 420,2013-06-04 02:50:00,
2013-06-03 21:55:00,79.1,53.1,28.82,East,85,0.1,2.5,41,0.00,,,0.00,WSDL version 420,2013-06-04 02:55:00,
2013-06-03 22:00:00,78.9,53.0,28.85,NE,50,0.5,1.3,41,0.00,,,0.00,WSDL version 420,2013-06-04 03:00:00,
2013-06-03 22:05:00,78.8,53.1,28.85,NNE,23,0.0,1.6,41,0.00,,,0.00,WSDL version 420,2013-06-04 03:05:00,
2013-06-03 22:10:00,78.7,53.8,28.85,NNE,23,0.4,1.6,43,0.00,,,0.00,WSDL version 420,2013-06-04 03:10:00,
2013-06-03 22:15:00,78.5,53.6,28.85,NE,42,1.1,2.7,43,0.00,,,0.00,WSDL version 420,2013-06-04 03:15:00,
2013-06-03 22:20:00,78.4,54.1,28.85,NE,50,0.5,2.7,43,0.00,,,0.00,WSDL version 420,2013-06-04 03:20:00,
2013-06-03 22:25:00,78.3,54.0,28.85,NE,38,0.1,2.2,43,0.00,,,0.00,WSDL version 420,2013-06-04 03:25:00,
2013-06-03 22:30:00,78.1,54.4,28.85,NNE,18,0.9,2.2,44,0.00,,,0.00,WSDL version 420,2013-06-04 03:30:00,
2013-06-03 22:35:00,77.9,54.5,28.85,NE,42,0.4,2.5,45,0.00,,,0.00,WSDL version 420,2013-06-04 03:35:00,
2013-06-03 22:40:00,77.8,54.8,28.85,NNE,23,0.8,2.5,45,0.00,,,0.00,WSDL version 420,2013-06-04 03:40:00,
2013-06-03 22:45:00,77.6,54.5,28.85,North,360,0.6,2.2,45,0.00,,,0.00,WSDL version 420,2013-06-04 03:45:00,
2013-06-03 22:50:00,77.5,54.5,28.85,NNE,18,0.1,1.6,45,0.00,,,0.00,WSDL version 420,2013-06-04 03:50:00,
2013-06-03 22:55:00,77.4,54.6,28.85,NNE,23,0.0,1.6,45,0.00,,,0.00,WSDL version 420,2013-06-04 03:55:00,
2013-06-03 23:00:00,77.2,54.9,28.85,NNE,23,0.0,1.6,46,0.00,,,0.00,WSDL version 420,2013-06-04 04:00:00,
2013-06-03 23:05:00,77.0,54.7,28.85,NNW,330,0.0,1.1,46,0.00,,,0.00,WSDL version 420,2013-06-04 04:05:00,
2013-06-03 23:10:00,76.9,55.0,28.85,NNE,20,0.0,1.3,47,0.00,,,0.00,WSDL version 420,2013-06-04 04:10:00,
2013-06-03 23:15:00,76.7,55.0,28.85,WNW,293,0.0,1.3,47,0.00,,,0.00,WSDL version 420,2013-06-04 04:15:00,
2013-06-03 23:20:00,76.6,54.9,28.85,WNW,293,0.0,1.3,48,0.00,,,0.00,WSDL version 420,2013-06-04 04:20:00,
2013-06-03 23:25:00,76.4,55.3,28.85,WNW,293,0.0,1.3,48,0.00,,,0.00,WSDL version 420,2013-06-04 04:25:00,
2013-06-03 23:30:00,76.3,55.1,28.85,WNW,293,0.0,0.0,48,0.00,,,0.00,WSDL version 420,2013-06-04 04:30:00,
2013-06-03 23:35:00,76.1,55.2,28.85,WNW,293,0.0,0.0,49,0.00,,,0.00,WSDL version 420,2013-06-04 04:35:00,
2013-06-03 23:42:00,75.8,55.1,28.85,WNW,293,0.0,0.0,49,0.00,,,0.00,WSDL version 420,2013-06-04 04:42:00,
2013-06-03 23:47:00,75.7,55.2,28.82,WNW,293,0.0,0.0,49,0.00,,,0.00,WSDL version 420,2013-06-04 04:47:00,
2013-06-03 23:52:00,75.6,55.1,28.82,WNW,293,0.0,0.0,49,0.00,,,0.00,WSDL version 420,2013-06-04 04:52:00,
2013-06-03 23:57:00,75.4,55.2,28.82,WNW,293,0.0,0.0,50,0.00,,,0.00,WSDL version 420,2013-06-04 04:57:00,